[[{"header":{"parameterUnit":"m.s-1","parameterCategory":1,"la1":30.2991,"la2":30.254,"lo1":-89.0895,"lo2":-89.0444,"dy":0.0017,"dx":0.0017,"nx":28,"ny":28,"refTime":"2025-01-19T09:00:00:Z","depth":0,"parameterNumber":2,"parameterNumberName":"U-component_of_WINDS"},"data":[0,0,0,0,0,0,0,0,0,0,0,0,0,0,0,0,0,0,0,0,0,0,0,0,0,0,0,0,0,0,0,0,0,0,0,0,0,0,0,0,0,0,0,0,0,0,0,0,0,0,0,0,0,0,0,0,0,0,2.794,2.7941,0,2.7982,2.7983,2.7983,2.7957,2.7956,2.7954,2.7953,2.7995,2.7998,2.8,0,0,0,0,0,0,0,0,0,0,0,0,0,2.7838,2.784,2.794,2.7941,2.7941,2.7982,2.7983,2.7984,2.7957,2.7956,2.7954,2.7953,2.7995,2.7997,2.8,0,0,0,0,0,0,0,0,0,0,0,0,0,2.7881,2.784,2.794,2.7933,2.7933,2.7982,2.7983,2.7984,2.7957,2.7956,2.7954,2.7952,2.7994,2.7997,2.8001,2.8059,0,0,2.8011,2.8012,0,0,0,0,0,0,0,0,2.7879,2.7885,2.7934,2.7934,2.7934,2.7963,2.7962,2.8009,2.7958,2.7948,2.7953,2.7951,2.7986,2.799,2.8002,2.8061,2.8063,2.8011,2.8013,2.8015,2.8016,0,0,0,0,0,0,0,2.7876,2.7883,2.7957,2.7934,2.7934,2.7928,2.7932,2.7971,2.7977,2.7949,2.7947,2.7952,2.7986,2.7999,2.8003,2.8063,2.8011,2.8014,2.8016,2.8018,2.8174,2.8176,0,0,0,0,0,0,2.7873,2.7881,2.7956,2.7958,2.7901,2.7931,2.7936,2.7955,2.7976,2.7978,2.7954,2.7951,2.7994,2.7999,2.8004,2.8074,2.8015,2.8018,2.802,2.8171,2.8174,2.8176,0,0,0,0,0,0,2.7871,2.788,2.7954,2.7919,2.7928,2.7935,2.7957,2.7957,2.797,2.798,2.7981,2.7966,2.7992,2.7999,2.8046,2.8075,2.802,2.8023,2.8169,2.8172,2.8175,2.8215,0,0,0,0,0,0,2.7868,2.788,2.7902,2.792,2.793,2.7995,2.7959,2.7959,2.7976,2.7973,2.7992,2.7993,2.7992,2.8041,2.8049,2.8079,2.8025,2.8166,2.817,2.8174,2.8211,2.8219,2.8226,0,0,0,0,0,2.7865,2.7911,2.7903,2.7912,2.7958,2.7997,2.8002,2.7999,2.7978,2.8001,2.8008,2.7993,2.8071,2.8046,2.8055,2.8086,2.8164,2.8169,2.8174,2.8208,2.8217,2.8226,0,0,0,0,0,0,2.7895,2.7913,2.7904,2.7957,2.7976,2.7992,2.802,2.801,2.8034,2.803,2.8025,2.803,2.8079,2.8087,2.8059,2.8145,2.8114,2.8121,2.8137,2.8146,2.8154,2.815,2.8028,0,0,0,0,0,2.7908,2.7938,2.7952,2.7998,2.8008,2.8012,2.8029,2.8026,2.8044,2.8052,2.8062,2.8081,2.811,2.8129,2.8156,2.8213,2.8217,2.8239,2.8246,2.8252,2.8258,2.829,2.83,2.8192,2.8192,2.8192,0,0,2.7935,2.7948,2.7967,2.8004,2.8018,2.805,2.8019,2.8053,2.8077,2.8057,2.8102,2.811,2.8131,2.8183,2.8207,2.8192,2.8289,2.8258,2.8263,2.8265,2.8296,2.8306,2.8315,2.8195,2.8194,2.8194,0,0,2.8,2.8013,2.8053,2.8068,2.8089,2.8093,2.8102,2.8121,2.8126,2.8171,2.8157,2.8185,2.8235,2.825,2.8265,2.8338,2.8325,2.8347,2.8386,2.8417,2.8425,2.8433,2.8459,2.8469,2.8353,2.8353,2.8353,0,2.803,2.8077,2.8074,2.811,2.8127,2.8112,2.8152,2.8167,2.8196,2.8208,2.8192,2.8255,2.8267,2.8323,2.8342,2.8354,2.8365,2.8344,2.8424,2.8432,2.8439,2.8464,2.8474,2.8355,2.8355,2.8355,2.8355,0,2.8114,2.8147,2.8176,2.8206,2.8226,2.8264,2.8268,2.8289,2.8284,2.8289,2.8336,2.8351,2.8382,2.8395,2.839,2.8451,2.8441,2.8425,2.8394,2.8452,2.8475,2.8485,2.8359,2.8358,2.8357,2.8357,0,0,2.8197,2.8226,2.8237,2.8251,2.8274,2.83,2.8338,2.8368,2.8387,2.8408,2.844,2.8484,2.8469,2.8485,2.8483,2.851,2.8568,2.849,2.849,2.8504,2.8636,2.8649,2.866,2.856,2.8562,2.8563,2.8635,0,2.8263,2.833,2.8329,2.8391,2.8422,2.8408,2.8442,2.846,2.8467,2.8494,2.8501,2.8532,2.851,2.852,2.8547,2.8555,2.8594,2.855,2.859,2.8591,2.8584,2.8672,2.8684,2.8751,2.8644,2.8645,2.8647,0,2.8349,2.8374,2.8439,2.846,2.8473,2.8502,2.8531,2.8557,2.8579,2.8582,2.8601,2.8595,2.8634,2.8603,2.8658,2.8628,2.8644,2.8651,2.8654,2.8657,2.8622,2.8677,2.8772,2.8782,2.8661,2.866,2.8659,0,2.8403,2.8453,2.8499,2.8511,2.8536,2.8558,2.8569,2.8589,2.8608,2.8633,2.8645,2.8674,2.869,2.8714,2.8716,2.8693,2.8771,2.874,2.8774,2.8774,2.879,2.8789,2.8889,2.8802,2.8802,2.8801,2.8801,0,2.8477,2.8517,2.8524,2.8552,2.8597,2.8596,2.8641,2.8651,2.8669,2.8698,2.8689,2.8717,2.8719,2.8748,2.875,2.8795,2.8802,2.8806,2.8806,2.8806,2.8806,2.8816,2.8812,2.8804,2.8804,2.8803,2.8803,0,2.8545,2.8551,2.86,2.862,2.8626,2.8659,2.8676,2.8703,2.871,2.8748,2.8757,2.8767,2.8801,2.8805,2.8845,2.8846,2.8901,2.8896,2.8894,2.8893,2.8927,2.8923,2.9036,2.9051,2.8955,2.8956,2.8957,0,2.8591,2.8622,2.8646,2.8666,2.8679,2.871,2.873,2.8731,2.8752,2.878,2.8803,2.8837,2.8863,2.8919,2.8929,2.896,2.8956,2.8994,2.896,2.896,2.8956,2.8954,2.8958,2.8999,2.9,2.9001,2.9002,0,2.8672,2.8674,2.8703,2.8733,2.8757,2.8781,2.8803,2.882,2.8825,2.8849,2.8884,2.8904,2.8946,2.8979,2.901,2.9022,2.9013,2.9013,2.9022,2.9023,2.902,2.9022,2.8911,2.901,2.9009,2.9008,2.9008,2.9008,2.8731,2.8758,2.878,2.8812,2.883,2.8851,2.8878,2.8888,2.8918,2.8952,2.8951,2.899,2.9012,2.9052,2.9067,2.9097,2.9085,2.9099,2.9102,2.9106,2.9109,2.9016,2.9103,2.9103,2.9103,2.9102,2.9102,0,2.8812,2.8826,2.8856,2.8888,2.8914,2.8904,2.8929,2.8951,2.8986,2.9007,2.9034,2.9075,2.9108,2.9122,2.9155,2.9177,2.9173,2.9185,2.9183,2.9186,2.9118,2.9106,2.9187,2.9187,2.9187,2.9187,2.9187,2.9187,2.8857,2.8903,2.8907,2.8962,2.8976,2.9014,2.9029,2.9049,2.9066,2.9113,2.914,2.915,2.9169,2.9203,2.9233,2.9236,2.9249,2.9262,2.9264,2.9199,2.9191,2.9183,2.9172,2.9265,2.9265,2.9329,2.933,2.933]},{"header":{"parameterUnit":"m.s-1","parameterCategory":1,"la1":30.2991,"la2":30.254,"lo1":-89.0895,"lo2":-89.0444,"dy":0.0017,"dx":0.0017,"nx":28,"ny":28,"refTime":"2025-01-19T09:00:00:Z","depth":0,"parameterNumber":3,"parameterNumberName":"V-component_of_WINDS"},"data":[0,0,0,0,0,0,0,0,0,0,0,0,0,0,0,0,0,0,0,0,0,0,0,0,0,0,0,0,0,0,0,0,0,0,0,0,0,0,0,0,0,0,0,0,0,0,0,0,0,0,0,0,0,0,0,0,0,0,-7.5446,-7.5448,0,-7.5635,-7.5637,-7.5639,-7.5589,-7.5585,-7.5581,-7.5577,-7.5768,-7.5776,-7.5785,0,0,0,0,0,0,0,0,0,0,0,0,0,-7.5038,-7.5045,-7.5446,-7.5448,-7.545,-7.5635,-7.5637,-7.564,-7.5589,-7.5585,-7.558,-7.5576,-7.5765,-7.5775,-7.5785,0,0,0,0,0,0,0,0,0,0,0,0,0,-7.522,-7.5048,-7.5445,-7.5447,-7.545,-7.5634,-7.5637,-7.564,-7.559,-7.5585,-7.5579,-7.5574,-7.5762,-7.5774,-7.5787,-7.598,0,0,-7.5826,-7.5832,0,0,0,0,0,0,0,0,-7.5209,-7.5235,-7.5445,-7.5448,-7.545,-7.5582,-7.5563,-7.5754,-7.5592,-7.5537,-7.5577,-7.5571,-7.5711,-7.5727,-7.5775,-7.5989,-7.5997,-7.5827,-7.5835,-7.5841,-7.5844,0,0,0,0,0,0,0,-7.5197,-7.5226,-7.552,-7.5448,-7.5451,-7.5438,-7.5458,-7.5599,-7.5653,-7.5541,-7.5538,-7.5561,-7.5711,-7.5763,-7.5779,-7.6,-7.5827,-7.5838,-7.5846,-7.5851,-7.6381,-7.6387,0,0,0,0,0,0,-7.5183,-7.5216,-7.5514,-7.5526,-7.5314,-7.545,-7.5472,-7.5546,-7.5651,-7.5662,-7.5566,-7.5558,-7.5744,-7.5764,-7.5786,-7.6019,-7.5841,-7.5853,-7.586,-7.6375,-7.6383,-7.6389,0,0,0,0,0,0,-7.5174,-7.521,-7.5507,-7.537,-7.5407,-7.5463,-7.5546,-7.5552,-7.5604,-7.567,-7.5679,-7.5609,-7.574,-7.5768,-7.5932,-7.6025,-7.5859,-7.587,-7.6367,-7.6377,-7.6386,-7.6486,0,0,0,0,0,0,-7.5162,-7.5207,-7.5281,-7.5372,-7.5415,-7.5651,-7.5552,-7.556,-7.5627,-7.5619,-7.5713,-7.5723,-7.5738,-7.5913,-7.5945,-7.6039,-7.588,-7.6359,-7.6372,-7.6383,-7.6475,-7.6498,-7.6518,0,0,0,0,0,-7.5148,-7.5301,-7.5285,-7.5322,-7.5509,-7.5657,-7.5681,-7.5695,-7.5635,-7.571,-7.5752,-7.572,-7.6009,-7.5931,-7.5966,-7.6066,-7.6354,-7.6368,-7.6382,-7.6465,-7.6494,-7.6517,0,0,0,0,0,0,-7.5218,-7.5313,-7.5297,-7.5484,-7.5563,-7.5648,-7.5743,-7.5725,-7.5821,-7.5809,-7.5822,-7.5844,-7.6012,-7.6055,-7.5966,-7.6258,-7.6172,-7.6195,-7.6224,-7.6251,-7.6272,-7.6258,-7.5891,0,0,0,0,0,-7.5256,-7.5369,-7.5445,-7.5603,-7.5644,-7.5687,-7.5752,-7.5756,-7.5838,-7.587,-7.5925,-7.6004,-7.6113,-7.6184,-7.6288,-7.6481,-7.6501,-7.6567,-7.6588,-7.6605,-7.6624,-7.673,-7.676,-7.6436,-7.6436,-7.6436,0,0,-7.5334,-7.54,-7.547,-7.5619,-7.5681,-7.5797,-7.5715,-7.5841,-7.5927,-7.5889,-7.6049,-7.6091,-7.6181,-7.6361,-7.6442,-7.6401,-7.6718,-7.6624,-7.6637,-7.6647,-7.6748,-7.6778,-7.6805,-7.6446,-7.6444,-7.6443,0,0,-7.5536,-7.5597,-7.5736,-7.58,-7.5895,-7.5922,-7.5956,-7.6044,-7.6072,-7.6232,-7.6206,-7.6308,-7.6495,-7.656,-7.6617,-7.6845,-7.6819,-7.6878,-7.699,-7.7093,-7.7118,-7.7141,-7.7222,-7.7251,-7.6897,-7.6897,-7.6897,0,-7.5621,-7.5796,-7.5809,-7.5938,-7.6004,-7.5977,-7.6117,-7.6178,-7.6301,-7.6347,-7.63,-7.6534,-7.6593,-7.6787,-7.6843,-7.6891,-7.6929,-7.6868,-7.7114,-7.7137,-7.7158,-7.7236,-7.7266,-7.6904,-7.6903,-7.6902,-7.6902,0,-7.5896,-7.6017,-7.6118,-7.6239,-7.6316,-7.645,-7.6483,-7.656,-7.6558,-7.659,-7.6754,-7.6823,-7.694,-7.6987,-7.6985,-7.7182,-7.7154,-7.711,-7.7025,-7.7195,-7.7268,-7.7298,-7.6913,-7.6911,-7.6909,-7.6907,0,0,-7.6147,-7.6275,-7.6312,-7.6367,-7.6469,-7.6563,-7.6695,-7.6812,-7.6877,-7.6963,-7.7074,-7.7234,-7.7194,-7.726,-7.7265,-7.7355,-7.7531,-7.7301,-7.7303,-7.7341,-7.7752,-7.7785,-7.7819,-7.7515,-7.7521,-7.7525,-7.7745,0,-7.6358,-7.6593,-7.6609,-7.682,-7.6933,-7.6908,-7.7023,-7.7099,-7.7133,-7.7232,-7.7269,-7.7382,-7.7322,-7.7361,-7.7449,-7.7491,-7.7614,-7.7476,-7.7618,-7.7623,-7.7596,-7.7857,-7.7892,-7.8095,-7.7773,-7.7778,-7.7782,0,-7.6636,-7.6732,-7.6955,-7.7043,-7.709,-7.7194,-7.7302,-7.7397,-7.7482,-7.75,-7.7574,-7.7567,-7.7702,-7.7612,-7.7798,-7.7704,-7.7763,-7.7792,-7.78,-7.7814,-7.7713,-7.7878,-7.8161,-7.8191,-7.7827,-7.7823,-7.782,0,-7.6797,-7.6982,-7.7139,-7.7187,-7.7293,-7.7367,-7.7414,-7.7493,-7.7562,-7.7656,-7.7701,-7.7809,-7.7868,-7.7951,-7.7973,-7.7906,-7.8159,-7.8071,-7.8178,-7.8177,-7.8232,-7.8228,-7.8528,-7.827,-7.827,-7.8269,-7.8268,0,-7.7031,-7.7169,-7.7213,-7.731,-7.7464,-7.748,-7.7631,-7.7674,-7.7745,-7.7849,-7.7834,-7.7931,-7.7955,-7.8057,-7.8075,-7.8227,-7.8253,-7.8271,-7.8274,-7.8273,-7.8271,-7.8312,-7.8298,-7.8277,-7.8275,-7.8274,-7.8272,0,-7.7237,-7.7273,-7.7443,-7.753,-7.7555,-7.7664,-7.7738,-7.783,-7.7863,-7.7995,-7.8026,-7.8077,-7.8196,-7.8227,-7.8369,-7.8381,-7.856,-7.855,-7.8532,-7.8532,-7.8637,-7.8627,-7.8974,-7.902,-7.8732,-7.8734,-7.8737,0,-7.7384,-7.749,-7.7588,-7.7658,-7.7709,-7.782,-7.7891,-7.7912,-7.7986,-7.809,-7.8171,-7.8289,-7.8384,-7.8576,-7.8625,-7.8733,-7.8725,-7.884,-7.8742,-7.8737,-7.8727,-7.8721,-7.8732,-7.8858,-7.8861,-7.8864,-7.8866,0,-7.7642,-7.7654,-7.7757,-7.7868,-7.7953,-7.804,-7.8123,-7.818,-7.8212,-7.8296,-7.8419,-7.8494,-7.864,-7.8757,-7.8867,-7.8914,-7.8896,-7.8896,-7.8927,-7.8926,-7.8912,-7.8922,-7.8583,-7.8888,-7.8886,-7.8884,-7.8883,-7.8882,-7.7823,-7.7916,-7.8,-7.8115,-7.8181,-7.8259,-7.8351,-7.8395,-7.8498,-7.862,-7.8625,-7.8759,-7.884,-7.8986,-7.904,-7.9144,-7.911,-7.9154,-7.9165,-7.9176,-7.9185,-7.8896,-7.9164,-7.9164,-7.9163,-7.9163,-7.9162,0,-7.808,-7.8133,-7.8239,-7.8357,-7.8448,-7.8424,-7.8515,-7.8592,-7.871,-7.8789,-7.8884,-7.9025,-7.9138,-7.9196,-7.9309,-7.9381,-7.9376,-7.941,-7.9405,-7.9416,-7.9209,-7.9172,-7.9413,-7.9413,-7.9413,-7.9413,-7.9413,-7.9413,-7.8224,-7.838,-7.8403,-7.8591,-7.8642,-7.8774,-7.8829,-7.8901,-7.8963,-7.9122,-7.9217,-7.9255,-7.9325,-7.9443,-7.9546,-7.956,-7.9602,-7.9641,-7.9651,-7.9456,-7.9431,-7.9406,-7.9371,-7.965,-7.965,-7.9849,-7.9851,-7.9852]}]]